Flag for Germany Weather past 2 weeks in Lübeck, Schleswig-Holstein, Germany

Now
72 °F

Passing clouds.


Feels Like: 76 °F
Forecast: 56 / 74 °F
Wind: 12 mph from Northeast

Location: Luebeck-Blankensee

Current Time: Sep 17, 2014 at 5:45:49 PM

Latest Report: Sep 17, 2014 at 5:20 PM


Visibility: N/A

Pressure: 30.01 "Hg

Humidity: 61%

Dew point: 57 °F

Location of LübeckLocation

Historic Weather in Lübeck — Graph

°F

Lübeck temperature yesterday

Maximum temperature yesterday: 75 °F (at 2:50 PM)
Minimum temperature yesterday: 52 °F (at 6:50 AM)
Average temperature yesterday: 67 °F

Past Weeks' High & Low Weather Summary

 TemperatureHumidityPressure
High82 °F (Sep 6, 2:50 PM)100% (Sep 3, 5:50 AM)30.36 "Hg (Sep 3, 5:50 AM)
Low45 °F (Sep 3, 5:50 AM)42% (Sep 6, 4:50 PM)29.86 "Hg (Sep 6, 3:50 PM)
Average64 °F78%30.09 "Hg
* Reported Sep 2 4:20 PM — Sep 17 4:50 PM, Lübeck, Weather by CustomWeather, © 2014

Note: Actual official high and low records may vary slightly from our data, if they occured in-between our weather recording intervals... More about our weather records

Advertising

Lübeck weather history for previous 24 hours

 ConditionsComfort  
Time TempWeatherWind HumidityBarometerVisibility
4:50 PM
Sep 17
73 °FSunny.12 mph53%30.01 "Hg10 mi
4:20 PM73 °FPassing clouds.12 mph53%30.01 "HgN/A
3:50 PM73 °FSunny.13 mph53%30.04 "Hg10 mi
3:20 PM73 °FSunny.12 mph53%30.04 "Hg10 mi
2:50 PM73 °FSunny.13 mph53%30.04 "Hg10 mi
2:20 PM73 °FPassing clouds.13 mph53%30.04 "HgN/A
1:50 PM73 °FPassing clouds.13 mph53%30.04 "HgN/A
1:20 PM73 °FPassing clouds.12 mph53%30.04 "HgN/A
12:50 PM73 °FPassing clouds.10 mph53%30.07 "HgN/A
12:20 PM72 °FPassing clouds.12 mph57%30.07 "HgN/A
11:50 AM70 °FPassing clouds.10 mph60%30.07 "HgN/A
11:20 AM68 °FSunny.9 mph69%30.07 "Hg10 mi
10:50 AM66 °FPassing clouds.9 mph73%30.07 "HgN/A
10:20 AM64 °FSunny.9 mph73%30.09 "Hg10 mi
9:50 AM63 °FSunny.7 mph77%30.09 "Hg10 mi
9:20 AM61 °FSunny.6 mph83%30.09 "Hg10 mi
8:50 AM57 °FSunny.6 mph94%30.09 "Hg10 mi
8:20 AM55 °FSunny.3 mph94%30.09 "Hg10 mi
7:50 AM54 °FClear.3 mph94%30.09 "Hg10 mi
7:20 AM52 °FFog.3 mph94%30.09 "HgN/A
6:50 AM54 °FFog.2 mph94%30.07 "HgN/A
9:50 PM
Sep 16
64 °FClear.9 mph83%30.09 "Hg10 mi
9:20 PM66 °FClear.9 mph78%30.09 "Hg10 mi
8:50 PM64 °FClear.7 mph83%30.09 "Hg10 mi
8:20 PM66 °FSunny.7 mph78%30.09 "Hg10 mi
7:50 PM68 °FSunny.7 mph73%30.07 "Hg10 mi
7:20 PM70 °FSunny.7 mph69%30.07 "Hg10 mi
6:50 PM72 °FSunny.7 mph65%30.07 "Hg10 mi
6:20 PM73 °FPassing clouds.10 mph61%30.07 "HgN/A
5:50 PM73 °FSunny.12 mph61%30.07 "Hg10 mi
5:20 PM73 °FPassing clouds.10 mph61%30.07 "HgN/A
Weather by CustomWeather, © 2014

See weather overviewHow to use our weather pages